GW3210 Weather Reports


time (UTC)temp
C
wind
direction
speed
KPH
gust
KPH
rain 1hr
cm
rain 24hr
cm
rain mn
cm
humidity
%
barometer
mb
20260510174317 15 293 3.2 6.4 0.00 0.00 0.00 57 1021.4
20260510173338 14 293 4.8 8.0 0.00 0.00 0.00 57 1021.2
20260510172317 13 315 3.2 4.8 0.00 0.00 0.00 58 1021.2
20260510171337 13 23 1.6 3.2 0.00 0.00 0.00 59 1020.9
20260510170317 13 0.0 1.6 0.00 0.00 0.00 59 1020.8
20260510165358 12 338 4.8 6.4 0.00 0.00 0.00 61 1020.8
20260510164317 12 0.0 1.6 0.00 0.00 0.00 61 1020.8
20260510163317 12 338 3.2 6.4 0.00 0.00 0.00 62 1020.9
20260510162317 12 315 1.6 3.2 0.00 0.00 0.00 62 1020.8
20260510161317 12 315 4.8 6.4 0.00 0.00 0.00 63 1020.6
20260510160317 12 293 1.6 3.2 0.00 0.00 0.00 63 1020.7
20260510155317 12 293 3.2 6.4 0.00 0.00 0.00 63 1020.3
20260510154317 11 338 4.8 6.4 0.00 0.00 0.00 64 1020.3
20260510153317 11 315 3.2 4.8 0.00 0.00 0.00 64 1020.3
20260510152317 11 23 6.4 11.3 0.00 0.00 0.00 65 1020.0
20260510151337 11 315 4.8 6.4 0.00 0.00 0.00 65 1020.1
20260510150317 11 338 4.8 8.0 0.00 0.00 0.00 65 1020.0
20260510145337 11 338 4.8 9.7 0.00 0.00 0.00 65 1020.0
20260510144317 11 293 4.8 6.4 0.00 0.00 0.00 65 1020.0
20260510143317 11 0 4.8 6.4 0.00 0.00 0.00 65 1019.7
20260510142317 11 315 3.2 6.4 0.00 0.00 0.00 65 1019.7
20260510141317 11 0 3.2 4.8 0.00 0.00 0.00 66 1019.7
20260510140316 11 315 3.2 4.8 0.00 0.00 0.00 66 1019.6
20260510135317 11 338 6.4 9.7 0.00 0.00 0.00 66 1019.5
20260510134317 11 293 3.2 6.4 0.00 0.00 0.00 66 1019.5
20260510133317 11 315 4.8 6.4 0.00 0.00 0.00 67 1019.4
20260510132316 11 315 3.2 6.4 0.00 0.00 0.00 67 1019.4
20260510131316 11 338 9.7 16.1 0.00 0.00 0.00 67 1019.3
20260510130317 11 315 3.2 8.0 0.00 0.00 0.00 67 1019.5
20260510125316 11 293 8.0 12.9 0.00 0.00 0.00 67 1019.5
20260510124317 11 293 4.8 6.4 0.00 0.00 0.00 67 1019.4
20260510123317 11 315 8.0 12.9 0.00 0.00 0.00 67 1019.4
20260510122317 11 338 6.4 9.7 0.00 0.00 0.00 67 1019.4
20260510121336 11 315 8.0 14.5 0.00 0.00 0.00 67 1019.5
20260510120317 11 293 6.4 12.9 0.00 0.00 0.00 67 1019.2
20260510115317 11 315 8.0 14.5 0.00 0.00 0.00 66 1019.1
20260510114317 11 293 4.8 9.7 0.00 0.00 0.00 66 1019.0
20260510113316 11 315 6.4 11.3 0.00 0.00 0.00 66 1019.0
20260510112317 11 293 9.7 12.9 0.00 0.00 0.00 65 1018.9
20260510111316 11 315 6.4 12.9 0.00 0.00 0.00 65 1018.9
20260510110316 11 315 8.0 14.5 0.00 0.00 0.00 65 1019.1
20260510105316 11 293 6.4 9.7 0.00 0.00 0.00 65 1018.9
20260510104316 12 293 9.7 14.5 0.00 0.00 0.00 65 1018.6
20260510103317 12 293 4.8 8.0 0.00 0.00 0.00 64 1018.5
20260510102316 12 270 6.4 11.3 0.00 0.00 0.00 64 1018.3
20260510101316 12 293 6.4 9.7 0.00 0.00 0.00 64 1017.9
20260510100316 12 315 9.7 14.5 0.00 0.00 0.00 64 1017.7
20260510095317 12 315 9.7 19.3 0.00 0.00 0.00 64 1018.0
20260510094316 13 270 6.4 11.3 0.00 0.00 0.00 64 1017.9
20260510093316 13 315 4.8 6.4 0.00 0.00 0.00 63 1018.0
20260510092316 13 293 9.7 14.5 0.00 0.00 0.00 62 1018.0
20260510091316 13 293 4.8 8.0 0.00 0.00 0.00 61 1018.0
20260510090316 14 293 9.7 14.5 0.00 0.00 0.00 60 1017.8
20260510085316 14 293 4.8 6.4 0.00 0.00 0.00 59 1017.8
20260510084316 15 270 3.2 6.4 0.00 0.00 0.00 57 1017.8
20260510083316 15 248 3.2 4.8 0.00 0.00 0.00 56 1017.8
20260510082316 15 270 3.2 4.8 0.00 0.00 0.00 55 1017.8
20260510081316 15 270 3.2 4.8 0.00 0.00 0.00 54 1017.8
20260510080357 15 270 1.6 3.2 0.00 0.00 0.00 54 1017.8
20260510075316 15 270 1.6 3.2 0.00 0.00 0.00 54 1017.8
20260510074317 15 315 1.6 4.8 0.00 0.00 0.00 54 1017.7
20260510073316 15 0.0 1.6 0.00 0.00 0.00 54 1017.7
20260510072317 15 0.0 0.0 0.00 0.00 0.00 53 1017.6
20260510071316 15 0.0 0.0 0.00 0.00 0.00 52 1017.7
20260510070316 16 315 1.6 1.6 0.00 0.00 0.00 51 1017.6
20260510065316 16 0.0 1.6 0.00 0.00 0.00 51 1017.6
20260510064318 16 0.0 0.0 0.00 0.00 0.00 49 1017.7
20260510063317 16 0.0 1.6 0.00 0.00 0.00 49 1017.6
20260510062316 16 293 3.2 6.4 0.00 0.00 0.00 48 1017.6
20260510061317 17 315 4.8 8.0 0.00 0.00 0.00 48 1017.5
20260510060316 17 315 6.4 8.0 0.00 0.00 0.00 48 1017.5
20260510055316 17 338 3.2 6.4 0.00 0.00 0.00 47 1017.5
20260510054317 17 315 4.8 6.4 0.00 0.00 0.00 47 1017.3
20260510053317 17 315 4.8 8.0 0.00 0.00 0.00 46 1017.4
20260510052337 17 338 6.4 9.7 0.00 0.00 0.00 46 1017.3
20260510051338 18 293 4.8 4.8 0.00 0.00 0.00 45 1017.3
20260510050316 18 293 8.0 12.9 0.00 0.00 0.00 44 1017.4
20260510045317 18 270 6.4 12.9 0.00 0.00 0.00 44 1017.3
20260510044316 18 293 4.8 9.7 0.00 0.00 0.00 44 1017.2
20260510043316 18 293 4.8 8.0 0.00 0.00 0.00 43 1017.2
20260510042316 18 315 3.2 6.4 0.00 0.00 0.00 43 1017.0
20260510041316 19 293 1.6 3.2 0.00 0.00 0.00 42 1016.8
20260510040316 19 315 4.8 8.0 0.00 0.00 0.00 41 1016.7
20260510035317 19 315 3.2 8.0 0.00 0.00 0.00 41 1016.6
20260510034317 20 293 3.2 4.8 0.00 0.00 0.00 40 1016.5
20260510033317 20 315 3.2 6.4 0.00 0.00 0.00 40 1016.4
20260510032316 20 293 3.2 6.4 0.00 0.00 0.00 39 1016.5
20260510031316 21 315 3.2 4.8 0.00 0.00 0.00 38 1016.5
20260510030316 21 293 4.8 6.4 0.00 0.00 0.00 38 1016.4
20260510025316 21 293 3.2 4.8 0.00 0.00 0.00 37 1016.3
20260510024316 22 315 4.8 6.4 0.00 0.00 0.00 36 1016.4
20260510023316 22 293 4.8 9.7 0.00 0.00 0.00 35 1016.4
20260510022316 22 293 4.8 6.4 0.00 0.00 0.00 34 1016.6
20260510021316 22 315 3.2 4.8 0.00 0.00 0.00 32 1016.5
20260510020316 22 293 6.4 11.3 0.00 0.00 0.00 30 1016.5
20260510015316 23 270 3.2 8.0 0.00 0.00 0.00 27 1016.7
20260510014316 23 293 4.8 8.0 0.00 0.00 0.00 26 1016.8
20260510013316 23 0 8.0 14.5 0.00 0.00 0.00 26 1016.8
20260510012316 23 293 6.4 12.9 0.00 0.00 0.00 22 1016.8
20260510011316 24 315 8.0 12.9 0.00 0.00 0.00 22 1016.9
20260510010316 24 338 4.8 6.4 0.00 0.00 0.00 24 1016.9
20260510005316 24 315 4.8 6.4 0.00 0.00 0.00 24 1017.2
20260510004316 24 293 8.0 12.9 0.00 0.00 0.00 24 1017.1
20260510003316 24 315 6.4 8.0 0.00 0.00 0.00 23 1017.1
20260510002316 24 338 6.4 9.7 0.00 0.00 0.00 22 1017.2
20260510001316 25 293 11.3 12.9 0.00 0.00 0.00 21 1017.3
20260510000318 25 338 8.0 12.9 0.00 0.00 0.00 23 1017.4
20260509235315 26 0 8.0 12.9 0.00 0.00 0.00 26 1017.5
20260509234316 26 315 6.4 14.5 0.00 0.00 0.00 26 1017.5
20260509233316 25 338 8.0 14.5 0.00 0.00 0.00 27 1017.6
20260509232316 25 315 8.0 16.1 0.00 0.00 0.00 29 1017.6
20260509231316 25 338 6.4 12.9 0.00 0.00 0.00 29 1017.7
20260509230316 25 338 9.7 12.9 0.00 0.00 0.00 27 1018.1
20260509225316 26 293 8.0 12.9 0.00 0.00 0.00 27 1018.2
20260509224316 26 293 6.4 11.3 0.00 0.00 0.00 28 1018.3
20260509223315 26 338 11.3 16.1 0.00 0.00 0.00 30 1018.5
20260509222315 26 315 9.7 14.5 0.00 0.00 0.00 33 1018.6
20260509221316 25 270 6.4 11.3 0.00 0.00 0.00 32 1018.7
20260509220315 25 270 6.4 14.5 0.00 0.00 0.00 32 1018.7
20260509215336 25 293 6.4 9.7 0.00 0.00 0.00 32 1018.8
20260509214315 25 0 6.4 11.3 0.00 0.00 0.00 35 1019.0
20260509213316 25 315 12.9 17.7 0.00 0.00 0.00 34 1019.2
20260509212315 25 338 9.7 14.5 0.00 0.00 0.00 35 1019.3
20260509211315 24 293 8.0 11.3 0.00 0.00 0.00 35 1019.3
20260509210336 24 315 8.0 14.5 0.00 0.00 0.00 33 1019.3
20260509205315 24 293 8.0 12.9 0.00 0.00 0.00 36 1019.4
20260509204316 23 338 8.0 12.9 0.00 0.00 0.00 36 1019.8
20260509203316 23 0 9.7 14.5 0.00 0.00 0.00 36 1019.9
20260509202316 23 338 8.0 12.9 0.00 0.00 0.00 36 1020.1
20260509201316 23 270 6.4 11.3 0.00 0.00 0.00 35 1020.1
20260509200317 23 293 6.4 12.9 0.00 0.00 0.00 34 1020.2
20260509195338 23 315 4.8 8.0 0.00 0.00 0.00 37 1020.4
20260509194317 23 315 6.4 11.3 0.00 0.00 0.00 37 1020.4
20260509193317 22 248 6.4 11.3 0.00 0.00 0.00 38 1020.7
20260509192318 22 0 8.0 14.5 0.00 0.00 0.00 42 1020.7
20260509191315 21 293 3.2 9.7 0.00 0.00 0.00 40 1020.9
20260509190317 21 270 11.3 14.5 0.00 0.00 0.00 42 1021.1
20260509185338 21 338 4.8 12.9 0.00 0.00 0.00 43 1021.1
20260509184317 21 248 4.8 9.7 0.00 0.00 0.00 43 1021.3
20260509183317 20 293 4.8 11.3 0.00 0.00 0.00 47 1021.4
20260509182317 20 293 3.2 8.0 0.00 0.00 0.00 48 1021.5
20260509181338 19 315 8.0 11.3 0.00 0.00 0.00 50 1021.4
20260509180337 18 248 4.8 6.4 0.00 0.00 0.00 50 1021.4
20260509175337 18 293 4.8 6.4 0.00 0.00 0.00 52 1021.6